Location: Banff
(51.1667°N, 115.5667°W)
Time: 10:17:54
(UTC+00:00)

Explorer 7 - Pass Details

Date: 26 November 2020
Orbit: 484 x 678 km, 50.3° (Epoch: 19 January)

Event Time Altitude Azimuth Distance (km) Brightness Sun altitude
Exits shadow 12:30:31 60° 114° (ESE) 641 7.3 -25.4°
Drops below altitude 10° 12:33:58 10° 86° (E) 1,788 10.5 -24.9°
Sets 12:36:07 0° 84° (E) 2,650 11.7 -24.6°
